Weather History for KSAW - May, 2014

Change the Weather History Date:

Sunday, May 25, 2014

  Actual Average (KESC) Record (KESC)
Temperature  
Mean Temperature 70 °F -  
Max Temperature 84 °F 62 °F 78 °F (2012)
Min Temperature 55 °F 46 °F 30 °F (2002)
Cooling Degree Days 4    
Growing Degree Days 20 (Base 50)    
Moisture  
Dew Point 46 °F    
Average Humidity 52    
Maximum Humidity 71    
Minimum Humidity 19    
Precipitation  
Precipitation 0.00 in - - ()
Sea Level Pressure  
Sea Level Pressure 30.03 in    
Wind  
Wind Speed 8 mph (SW)    
Max Wind Speed 17 mph    
Max Gust Speed 28 mph    
Visibility 10 miles    
Events      
Averages and records for this station are not official NWS values.
T = Trace of Precipitation, MM = Missing Value Source: NWS Daily Summary

Daily Weather History Graph

Daily Weather History Graph

Search for Another Location

Airport or City:

Trip Planner

Search our weather history database for the weather conditions in past years. The results will help you decide how hot, cold, wet, or windy it might be!

Date:

Astronomy

May. 25, 2014 Rise Set
Actual Time 6:06 AM EDT 9:27 PM EDT
Civil Twilight 5:29 AM EDT 10:04 PM EDT
Nautical Twilight 4:40 AM EDT 10:53 PM EDT
Astronomical Twilight 3:39 AM EDT 11:55 PM EDT
Moon 4:22 AM EDT (5/25) 6:17 PM EDT (5/25)
Length of Visible Light 16h 35m
Length of Day
15h 21m
Waning Crescent, 10% of the Moon is Illuminated
May 25
Waning Crescent
May 28
New
Jun 5
First Quarter
Jun 13
Full
Jun 19
Last Quarter

Hourly Weather History & Observations

Time (EDT) Temp. Dew Point Humidity Pressure Visibility Wind Dir Wind Speed Gust Speed Precip Events Conditions
12:17 AM 61.0 °F 46.9 °F 60% 30.07 in 10.0 mi South 8.1 mph - N/A   Clear
12:37 AM 59.7 °F 46.6 °F 62% 30.07 in 10.0 mi South 8.1 mph - N/A   Clear
12:56 AM 59.2 °F 46.6 °F 63% 30.07 in 10.0 mi SSW 6.9 mph - N/A   Clear
1:17 AM 57.4 °F 46.6 °F 67% 30.07 in 10.0 mi SSW 6.9 mph - N/A   Clear
1:36 AM 57.2 °F 46.8 °F 68% 30.07 in 10.0 mi SSW 5.8 mph - N/A   Clear
1:57 AM 56.7 °F 46.8 °F 69% 30.07 in 10.0 mi SSW 4.6 mph - N/A   Clear
2:17 AM 57.4 °F 46.8 °F 68% 30.06 in 10.0 mi SSW 4.6 mph - N/A   Clear
2:36 AM 58.1 °F 46.8 °F 66% 30.06 in 10.0 mi SSW 4.6 mph - N/A   Clear
2:57 AM 57.2 °F 47.3 °F 69% 30.07 in 10.0 mi SSW 4.6 mph - N/A   Clear
3:17 AM 55.9 °F 46.4 °F 70% 30.07 in 10.0 mi SSW 4.6 mph - N/A   Clear
3:37 AM 55.6 °F 46.4 °F 71% 30.07 in 10.0 mi SW 3.5 mph - N/A   Clear
3:57 AM 56.5 °F 46.4 °F 69% 30.06 in 10.0 mi WSW 4.6 mph - N/A   Clear
4:16 AM 56.5 °F 45.9 °F 68% 30.07 in 10.0 mi West 3.5 mph - N/A   Mostly Cloudy
4:37 AM 57.2 °F 46.2 °F 67% 30.07 in 10.0 mi SSW 4.6 mph - N/A   Overcast
4:57 AM 58.1 °F 46.8 °F 66% 30.07 in 10.0 mi WSW 5.8 mph - N/A   Overcast
5:17 AM 58.3 °F 47.1 °F 66% 30.07 in 10.0 mi WSW 3.5 mph - N/A   Overcast
5:37 AM 58.6 °F 46.8 °F 65% 30.08 in 10.0 mi West 4.6 mph - N/A   Overcast
5:57 AM 58.5 °F 46.8 °F 65% 30.08 in 10.0 mi West 5.8 mph - N/A   Mostly Cloudy
6:45 AM 57.2 °F 46.4 °F 67% 30.08 in 10.0 mi West 5.8 mph - N/A   Clear
7:45 AM 60.8 °F 48.2 °F 63% 30.08 in 10.0 mi West 4.6 mph - N/A   Clear
8:47 AM 68.0 °F 48.2 °F 49% 30.07 in 10.0 mi West 10.4 mph - N/A   Clear
9:45 AM 73.4 °F 44.6 °F 36% 30.07 in 10.0 mi West 11.5 mph - N/A   Clear
10:45 AM 75.2 °F 44.6 °F 34% 30.07 in 10.0 mi West 15.0 mph - N/A   Clear
11:45 AM 77.0 °F 42.8 °F 29% 30.06 in 10.0 mi WSW 12.7 mph 17.3 mph N/A   Clear
12:45 PM 78.8 °F 42.8 °F 28% 30.05 in 10.0 mi WSW 13.8 mph 19.6 mph N/A   Clear
1:50 PM 80.6 °F 39.2 °F 23% - 10.0 mi SSW 11.5 mph 27.6 mph N/A   Clear
2:48 PM 82.4 °F 41.0 °F 23% 30.01 in 10.0 mi WSW 8.1 mph 19.6 mph N/A   Clear
3:50 PM 82.4 °F 39.2 °F 21% 30.00 in 10.0 mi SSW 10.4 mph - N/A   Clear
4:48 PM 84.2 °F 37.4 °F 19% 29.97 in 10.0 mi SW 11.5 mph 25.3 mph N/A   Clear
5:50 PM 84.2 °F 37.4 °F 19% 29.96 in 10.0 mi SW 13.8 mph 19.6 mph N/A   Clear
6:50 PM 82.4 °F 42.8 °F 25% 29.94 in 10.0 mi South 11.5 mph - N/A   Clear
7:50 PM 77.0 °F 48.2 °F 36% 29.94 in 10.0 mi SSE 17.3 mph - N/A   Clear
8:50 PM 73.4 °F 48.2 °F 41% 29.94 in 10.0 mi SSE 11.5 mph - N/A   Clear
9:50 PM 69.8 °F 48.2 °F 46% 29.95 in 10.0 mi South 12.7 mph - N/A   Clear
10:17 PM 68.5 °F 48.4 °F 49% 29.96 in 10.0 mi South 13.8 mph - N/A   Clear
10:36 PM 67.5 °F 48.6 °F 51% 29.96 in 10.0 mi South 10.4 mph - N/A   Clear
10:57 PM 66.2 °F 48.2 °F 52% 29.97 in 10.0 mi South 10.4 mph - N/A   Clear
11:17 PM 65.7 °F 49.1 °F 55% 29.97 in 10.0 mi South 10.4 mph - N/A   Clear
11:37 PM 64.6 °F 49.1 °F 57% 29.96 in 10.0 mi SSW 9.2 mph - N/A   Clear
11:57 PM 63.5 °F 49.5 °F 60% 29.96 in 10.0 mi SSW 9.2 mph - N/A   Clear